TimeEST,TemperatureF,Dew PointF,Humidity,Sea Level PressureIn,VisibilityMPH,Wind Direction,Wind SpeedMPH,Gust SpeedMPH,PrecipitationIn,Events,Conditions,WindDirDegrees,DateUTC
12:56 AM,50.0,37.0,61,30.07,10.0,NNW,15.0,-,N/A,,Clear,330,2013-11-08 05:56:00
1:56 AM,48.9,35.1,59,30.09,10.0,NNW,13.8,-,N/A,,Clear,330,2013-11-08 06:56:00
2:56 AM,48.0,34.0,58,30.12,10.0,NNW,16.1,-,N/A,,Clear,330,2013-11-08 07:56:00
3:56 AM,48.0,34.0,58,30.15,10.0,NNW,12.7,-,N/A,,Mostly Cloudy,340,2013-11-08 08:56:00
4:56 AM,46.9,33.1,59,30.18,10.0,NNW,13.8,-,N/A,,Clear,340,2013-11-08 09:56:00
5:56 AM,46.0,32.0,58,30.20,10.0,North,15.0,24.2,N/A,,Clear,350,2013-11-08 10:56:00
6:56 AM,45.0,32.0,60,30.23,10.0,North,12.7,-,N/A,,Clear,350,2013-11-08 11:56:00
8:56 AM,48.9,32.0,52,30.27,10.0,North,10.4,-,N/A,,Clear,10,2013-11-08 13:56:00
10:56 AM,54.0,28.9,38,30.27,10.0,North,-9999.0,-,N/A,,Clear,0,2013-11-08 15:56:00
11:56 AM,55.0,27.0,34,30.25,10.0,NNW,12.7,17.3,N/A,,Clear,340,2013-11-08 16:56:00
12:56 PM,57.0,27.0,32,30.22,10.0,North,12.7,-,N/A,,Clear,360,2013-11-08 17:56:00
1:56 PM,57.0,28.0,33,30.21,10.0,NNW,10.4,-,N/A,,Clear,330,2013-11-08 18:56:00
2:56 PM,57.9,26.1,30,30.20,10.0,NW,15.0,-,N/A,,Clear,320,2013-11-08 19:56:00
4:56 PM,54.0,28.0,37,30.24,10.0,North,8.1,-,N/A,,Clear,360,2013-11-08 21:56:00
5:56 PM,51.1,30.9,46,30.27,10.0,North,4.6,-,N/A,,Clear,360,2013-11-08 22:56:00
6:56 PM,43.0,39.0,86,30.29,10.0,Calm,Calm,-,N/A,,Clear,0,2013-11-08 23:56:00
7:56 PM,42.1,39.0,89,30.30,10.0,Calm,Calm,-,N/A,,Clear,0,2013-11-09 00:56:00
8:56 PM,39.9,37.0,89,30.30,10.0,Calm,Calm,-,N/A,,Clear,0,2013-11-09 01:56:00
9:56 PM,37.9,37.0,97,30.32,10.0,Calm,Calm,-,N/A,,Clear,0,2013-11-09 02:56:00
10:56 PM,37.9,36.0,93,30.33,10.0,Calm,Calm,-,N/A,,Clear,0,2013-11-09 03:56:00
11:56 PM,36.0,35.1,97,30.33,10.0,Calm,Calm,-,N/A,,Clear,0,2013-11-09 04:56:00